EW9963 Weather Reports


time (UTC)temp
F
wind
direction
speed
knots
gust
knots
rain 1hr
in
rain 24hr
in
rain mn
in
humidity
%
barometer
mb
20260503184540 68 200 2.6 8.7 0.00 0.00 0.00 47 1018.5
20260503183053 68 243 1.7 7.0 0.00 0.00 0.00 46 1018.5
20260503181540 67 0 0.9 5.2 0.00 0.00 0.00 51 1018.8
20260503180044 66 294 0.9 4.3 0.00 0.00 0.00 50 1018.8
20260503174543 66 151 1.7 5.2 0.00 0.01 0.00 53 1019.1
20260503173039 66 130 1.7 5.2 0.00 0.01 0.00 46 1018.9
20260503171539 64 330 4.3 9.6 0.00 0.01 0.00 49 1019.1
20260503081544 46 0 0.0 0.0 0.00 0.58 0.00 91 1016.9
20260503071541 47 0 0.0 0.0 0.00 0.63 0.00 91 1016.2
20260503070106 47 0 0.0 0.0 0.00 0.63 0.00 90 1016.1
20260503054543 50 0 0.0 0.0 0.00 0.64 0.00 91 1016.0
20260503053040 51 0 0.0 0.0 0.00 0.64 0.00 91 1015.9
20260503051547 51 0 0.0 0.0 0.00 0.64 0.00 91 1015.9
20260503050045 51 0 0.0 0.0 0.00 0.64 0.00 91 1015.9
20260503044543 51 0 0.0 0.0 0.00 0.64 0.00 91 1015.7
20260503043044 51 0 0.0 0.0 0.00 0.64 0.00 90 1015.8
20260503041540 51 0 0.0 0.0 0.00 0.64 0.00 90 1015.8
20260503040041 51 0 0.0 0.0 0.00 0.64 0.00 90 1015.7
20260503034540 51 0 0.0 0.0 0.00 0.64 0.64 90 1015.8
20260503033048 51 0 0.0 0.0 0.00 0.64 0.64 90 1015.4
20260503031540 51 0 0.0 0.0 0.00 0.64 0.64 90 1015.2
20260503030040 51 0 0.0 0.0 0.00 0.64 0.64 90 1015.0
20260503024540 51 0 0.0 0.0 0.00 0.64 0.64 90 1014.6
20260503023040 51 0 0.0 0.0 0.00 0.64 0.64 90 1014.5
20260503021543 51 0 0.0 0.0 0.00 0.64 0.64 89 1014.3
20260503020042 51 0 0.0 0.0 0.00 0.64 0.64 89 1014.0
20260503014542 51 0 0.0 0.0 0.00 0.64 0.64 88 1013.8
20260503013050 51 0 0.0 0.0 0.00 0.64 0.64 87 1013.5
20260503011543 51 0 0.0 0.0 0.00 0.64 0.64 87 1013.5
20260503004607 53 0 0.0 0.0 0.00 0.64 0.64 86 1013.2
20260503003041 54 0 0.0 0.0 0.00 0.64 0.64 84 1013.1
20260503001541 56 0 0.0 0.0 0.00 0.64 0.64 83 1012.7
20260503000042 56 0 0.0 0.9 0.00 0.64 0.64 82 1012.4
20260502234541 56 0 0.0 1.7 0.00 0.64 0.64 81 1012.3
20260502233039 56 0 0.0 0.0 0.00 0.64 0.64 80 1012.4
20260502231541 56 0 0.0 0.9 0.00 0.64 0.64 80 1012.2
20260502230044 56 352 0.0 2.6 0.00 0.64 0.64 79 1012.0
20260502224540 57 344 0.9 4.3 0.00 0.64 0.64 80 1012.0
20260502223044 56 32 0.9 4.3 0.00 0.64 0.64 80 1012.2
20260502221538 56 346 1.7 5.2 0.00 0.64 0.64 80 1012.1
20260502220041 56 331 2.6 5.2 0.00 0.64 0.64 80 1011.8
20260502214552 56 38 0.0 5.2 0.00 0.64 0.64 82 1012.0
20260502213042 56 0 1.7 8.7 0.00 0.64 0.64 82 1011.8
20260502211541 55 355 1.7 7.8 0.00 0.64 0.64 84 1011.8
20260502210048 55 304 3.5 7.0 0.00 0.64 0.64 85 1011.6
20260502204539 55 360 3.5 8.7 0.00 0.64 0.64 84 1011.5
20260502203052 54 284 1.7 7.0 0.00 0.64 0.64 86 1011.8
20260502201547 54 351 2.6 7.0 0.00 0.64 0.64 87 1012.1
20260502200043 55 40 2.6 7.8 0.00 0.64 0.64 87 1011.9
20260502194541 55 355 0.9 5.2 0.00 0.64 0.64 86 1012.1
20260502193041 55 352 2.6 7.0 0.00 0.64 0.64 86 1012.1
20260502191541 55 0 1.7 8.7 0.00 0.64 0.64 84 1012.0
20260502190046 55 333 3.5 11.3 0.00 0.64 0.64 84 1011.9